Accueil
METAR-TAF:

METAR-TAF

Aéroports :

Skelton Airport

Eureka, Alaska, États-Unis

latitude: 61-56N, longitude: 147-10W, altitude: 1002 m

Observation

Le bulletin a été fait il y a 42 minutes, à 19:56 UTC
Vent 5 kt de nord/nord-est
Température -15°C
Humidité 85%
Pression 1005 hPa
Visibilité: 16.1 km
Ciel clair

METAR: PAZK 281956Z AUTO 02005KT 10SM CLR M15/M17 A2967 RMK AO2 SLP134 T11501167 FZRANO

Heure: 11:38 (20:38 UTC)


TAF: absent

Observations et prévisions météorologiques de plus de 4000 aéroports (messages METAR et TAF).

Les stations disponibles sont représentées par des disques jaunes et rouges sur la carte.

Passer la souris dessus pour voir le nom de la station.

Cliquer dessus pour voir les observations et prévisions météorologiques.

Pour changer de carte: cliquez sur les boutons verts avec une croix noire pour zoomer, sur le bouton vert avec un tiret pour effectuer un zoom arrière, ou sur les flèches vertes pour les cartes adjacentes.


METAR-TAF: